Weather History for Greenville/Spartanburg, SC

Change the Weather History Date:

Monday, May 27, 2013

  Actual Average Record
Temperature  
Mean Temperature 69 °F 72 °F  
Max Temperature 83 °F 83 °F 98 °F (1916)
Min Temperature 54 °F 61 °F 43 °F (1961)
Degree Days  
Heating Degree Days 0 0  
Month to date heating degree days 73 39  
Since 1 July heating degree days 2966 3045  
Cooling Degree Days 4 7  
Month to date cooling degree days 89 122  
Year to date cooling degree days 126 170  
Growing Degree Days 18 (Base 50)    
Moisture  
Dew Point 55 °F    
Average Humidity 66    
Maximum Humidity 93    
Minimum Humidity 39    
Precipitation  
Precipitation 0.00 in 0.12 in 3.25 in (1986)
Month to date precipitation 5.77 3.26  
Year to date precipitation 23.16 18.93  
Snow  
Snow 0.00 in 0.00 in 0.00 in ()
Month to date snowfall 0.0 0.0  
Since 1 July snowfall 2.0 4.7  
Snow Depth 0.00 in    
Sea Level Pressure  
Sea Level Pressure 30.18 in    
Wind  
Wind Speed 3 mph (South)    
Max Wind Speed 12 mph    
Max Gust Speed 16 mph    
Visibility 10 miles    
Events      
T = Trace of Precipitation, MM = Missing Value Source: NWS Daily Summary

Daily Weather History Graph

Daily Weather History Graph

Search for Another Location

Airport:

Trip Planner

Search our weather history database for the weather conditions in past years. The results will help you decide how hot, cold, wet, or windy it might be!

Date:

Astronomy

May. 27, 2013 Rise Set
Actual Time 6:18 AM EDT 8:34 PM EDT
Civil Twilight 5:49 AM EDT 9:03 PM EDT
Nautical Twilight 5:14 AM EDT 9:38 PM EDT
Astronomical Twilight 4:35 AM EDT 10:17 PM EDT
Moon 11:15 PM EDT (5/27) 8:52 AM EDT (5/27)
Length of Visible Light 15h 13m
Length of Day
14h 16m
Waning Gibbous, 91% of the Moon is Illuminated
May 27
Waning Gibbous
May 31
Last Quarter
Jun 8
New
Jun 16
First Quarter
Jun 23
Full

Hourly Weather History & Observations

Time (EDT) Temp. Heat Index Dew Point Humidity Pressure Visibility Wind Dir Wind Speed Gust Speed Precip Events Conditions
12:53 AM 60.1 °F - 53.1 °F 78% 30.19 in 10.0 mi Calm Calm - N/A   Clear
1:53 AM 60.1 °F - 53.1 °F 78% 30.19 in 10.0 mi NE 3.5 mph - N/A   Clear
2:53 AM 59.0 °F - 53.1 °F 81% 30.18 in 10.0 mi Calm Calm - N/A   Clear
3:53 AM 57.0 °F - 53.1 °F 87% 30.18 in 10.0 mi Calm Calm - N/A   Clear
4:53 AM 54.0 °F - 52.0 °F 93% 30.20 in 10.0 mi Calm Calm - N/A   Clear
5:53 AM 57.0 °F - 54.0 °F 89% 30.21 in 10.0 mi Calm Calm - N/A   Clear
6:53 AM 55.9 °F - 53.1 °F 90% 30.23 in 10.0 mi Calm Calm - N/A   Clear
7:53 AM 61.0 °F - 54.0 °F 78% 30.25 in 10.0 mi Calm Calm - N/A   Clear
8:53 AM 66.9 °F - 54.0 °F 63% 30.25 in 10.0 mi NNE 3.5 mph - N/A   Clear
9:53 AM 71.1 °F - 55.0 °F 57% 30.25 in 10.0 mi Calm Calm - N/A   Clear
10:53 AM 73.0 °F - 54.0 °F 51% 30.23 in 10.0 mi SW 6.9 mph - N/A   Clear
11:53 AM 77.0 °F - 53.1 °F 43% 30.22 in 10.0 mi South 4.6 mph - N/A   Clear
12:53 PM 79.0 °F - 53.1 °F 40% 30.21 in 10.0 mi Variable 3.5 mph - N/A   Clear
1:53 PM 80.1 °F 80.0 °F 54.0 °F 40% 30.19 in 10.0 mi Variable 3.5 mph - N/A   Clear
2:53 PM 80.1 °F 80.0 °F 54.0 °F 40% 30.17 in 10.0 mi Calm Calm - N/A   Clear
3:53 PM 82.0 °F 81.6 °F 55.9 °F 41% 30.15 in 10.0 mi SW 3.5 mph - N/A   Clear
4:53 PM 82.0 °F 81.6 °F 55.9 °F 41% 30.14 in 10.0 mi South 8.1 mph - N/A   Mostly Cloudy
5:53 PM 81.0 °F 81.0 °F 57.0 °F 44% 30.13 in 10.0 mi South 4.6 mph - N/A   Mostly Cloudy
6:53 PM 80.1 °F 80.6 °F 57.9 °F 47% 30.13 in 10.0 mi South 8.1 mph - N/A   Scattered Clouds
7:53 PM 78.1 °F - 57.0 °F 48% 30.13 in 10.0 mi SW 6.9 mph - N/A   Clear
8:53 PM 73.0 °F - 57.9 °F 59% 30.13 in 10.0 mi SSE 4.6 mph - N/A   Clear
9:53 PM 70.0 °F - 59.0 °F 68% 30.13 in 10.0 mi South 5.8 mph - N/A   Clear
10:53 PM 69.1 °F - 60.1 °F 73% 30.14 in 10.0 mi SSE 3.5 mph - N/A   Clear
11:53 PM 68.0 °F - 60.1 °F 76% 30.15 in 10.0 mi SSE 3.5 mph - N/A   Clear